sat.trackr.live / text

‹ back to catalog

ONEWEB-0224

NORAD 48794 · 2021-045AD

PAYLOAD ACTIVE UNKNOWN

§ Identity

Operator
Country
UK
Launch date
2021-05-28
Launch site
VOSTO
Launch vehicle
Mass (kg)
RCS (m²)

Purposes: comms

External: N2YO · Heavens-Above · Gunter

§ Orbital elements

Epoch: 2026-09-12T00:34:16.084128Z

Period
109.46 min
Inclination
87.8968°
Eccentricity
0.0001343
Mean motion
13.15548247 rev/d
Perigee alt
1,200.8 km
Apogee alt
1,202.8 km
Semi-major
7,579.9 km
B*
1.3745e-4
RAAN
241.9108°
Arg perigee
65.7604°
Mean anomaly
294.3666°
Rev number
25,569

§ Raw data

ONEWEB-02241 48794U 21045AD  26255.02379727  .00000065  00000+0  13745-3 0  99942 48794  87.8968 241.9108 0001343  65.7604 294.3666 13.15548247255697

JSON: /api/v1/satellites/48794 · /tle

For live sub-satellite position, see the globe view (requires WebGL).

§ Visibility from observer

Set your observer location to see the next 7 days of passes ≥ 10°. The values pass through the URL so the page stays shareable.

No JS? Fill the form by hand. The geolocation button needs JavaScript.